Location: Newark
(48.1236°N, 0.7169°W)
Time: 16:13:52
(UTC+00:00)

ISS - Visible Passes

Search period start: 21 November 2019 00:00
Search period end: 01 December 2019 00:00
Orbit: 412 x 421 km, 51.6° (Epoch: 22 November)

Date Brightness Start Highest point End Pass type
(mag) Time Alt. Az. Time Alt. Az. Time Alt. Az.
21 Nov -1.3 18:15:13 10° S 18:16:02 13° SSE 18:16:02 13° SSE visible
22 Nov -1.3 17:29:09 10° SE 17:29:12 10° SE 17:29:16 10° SE visible
22 Nov -1.0 19:02:02 10° SW 19:02:48 16° SW 19:02:48 16° SW visible
23 Nov -2.7 18:13:54 10° SSW 18:16:34 33° SSE 18:16:34 33° SSE visible
24 Nov -2.2 17:26:00 10° SSW 17:28:42 23° SE 17:30:15 17° ESE visible
24 Nov -1.3 19:01:49 10° WSW 19:03:09 22° WSW 19:03:09 22° WSW visible
25 Nov -3.9 18:13:24 10° WSW 18:16:45 74° SSE 18:16:46 74° SSE visible
26 Nov -3.3 17:25:06 10° SW 17:28:21 50° SSE 17:30:19 21° E visible
26 Nov -1.2 19:01:50 10° W 19:03:13 22° W 19:03:13 22° W visible
27 Nov -3.7 18:13:16 10° W 18:16:37 63° NNW 18:16:43 63° N visible
28 Nov -3.8 17:24:45 10° WSW 17:28:07 83° NNW 17:30:11 22° ENE visible
28 Nov -1.1 19:01:52 10° WNW 19:03:04 20° WNW 19:03:04 20° WNW visible
29 Nov -3.2 18:13:16 10° W 18:16:31 46° N 18:16:31 46° N visible
30 Nov -3.4 17:24:39 10° W 17:27:57 53° NNW 17:29:56 21° ENE visible
30 Nov -1.1 19:01:46 10° WNW 19:02:49 18° WNW 19:02:49 18° WNW visible
